Location: Davidschlag
(48.4333°N, 14.2833°E)
Time: 15:59:56
(UTC+00:00)

STARLINK-24 - Pass Details

Date: 27 February 2020
Orbit: 527 x 529 km, 53.0° (Epoch: 06 April)

Event Time Altitude Azimuth Distance (km) Brightness Sun altitude
Rises 18:36:25 0° 287° (WNW) 2,667 8.7 -19.6°
Reaches altitude 10° 18:38:42 10° 294° (WNW) 1,778 7.3 -19.9°
Maximum altitude 18:42:35 45° 8° (N) 726 4.2 -20.6°
Enters shadow 18:43:08 42° 34° (NNE) 761 4.1 -20.7°
